Regional Weather Roundup
Issued by NWS

Home | Current Version | Previous Version | Text Only | Print | Product List | Glossary On
Versions: 1 2 3 4 5 6 7 8 9 10 11 12 13 14 15 16 17 18 19 20 21 22 23 24 25 26 27
000
ASUS45 KTFX 221510
RWRMT
MONTANA REGIONAL WEATHER ROUNDUP
NATIONAL WEATHER SERVICE GREAT FALLS MT
900 AM MDT TUE AUG 22 2017

NOTE: "FAIR" INDICATES FEW OR NO CLOUDS BELOW 12000 FEET WITH NO
SIGNIFICANT WEATHER AND/OR OBSTRUCTIONS TO VISIBILITY.

MTZ001>007-043-221600-
WEST OF THE DIVIDE

CITY           SKY/WX    TMP DP  RH WIND       PRES   REMARKS
KALISPELL      SUNNY     63  47  55 N3        30.16S
MISSOULA       SUNNY     54  41  61 W3        30.20R HAZE
BUTTE          SUNNY     51  35  54 SE3       30.30R
MULLAN PASS    SUNNY     61  34  36 SE6       30.27R
ANACONDA         N/A     61  36  39 CALM      30.26S
DEER LODGE       N/A     57  37  47 CALM      30.28R
EUREKA           N/A     63  43  48 MISG      30.18R
HAMILTON         N/A     59  39  47 CALM      30.21R
LIBBY            N/A     57  43  58 CALM      30.15S
$$

MTZ008-052>055-221600-
SOUTHWEST MONTANA

CITY           SKY/WX    TMP DP  RH WIND       PRES   REMARKS
BOZEMAN        SUNNY     59  40  49 NE3       30.25R
DILLON         SUNNY     57  35  43 SW10      30.27R
W YELLOWSTONE  SUNNY     46  36  66 CALM      30.40R
ENNIS          SUNNY     59  36  41 S6        30.32S
$$

MTZ009-010-012-014-046-048-049-054-221600-
EAST SLOPES AND CENTRAL MONTANA

CITY           SKY/WX    TMP DP  RH WIND       PRES   REMARKS
CUT BANK       SUNNY     59  38  45 CALM      30.18S
GREAT FALLS    SUNNY     62  36  37 SW5       30.18S
MALMSTROM AFB  SUNNY     61  39  44 W5        30.18R
HELENA         SUNNY     60  38  43 NE3       30.23R
AUGUSTA          N/A     67  35  31 W8        30.20R
BOWMANS CRNR     N/A     57  36  45 SW6       30.19R
CHOTEAU          N/A     64  37  36 CALM      30.20S
FAIRFIELD        N/A     62  39  42 CALM      30.17S
POWER            N/A     61  34  36 CALM      30.17S
RAYNESFORD       N/A     59  38  45 CALM      30.19S
ULM              N/A     61  37  40 CALM      30.18R
$$

MTZ011-013-016-021-045-047-050-051-221600-
NORTH CENTRAL MONTANA

CITY           SKY/WX    TMP DP  RH WIND       PRES   REMARKS
HAVRE          SUNNY     60  39  45 NE3       30.15S
LEWISTOWN        N/A     64  36  35 CALM      30.20S
N BAR RANCH      N/A     66  36  32 CALM      30.25R
CHINOOK          N/A     61  39  44 E6        30.15S
DENTON           N/A     62  35  36 S8        30.15R
GEYSER           N/A     67  35  31 W5        30.18S
GRASS RANGE      N/A     66  35  31 CALM      30.16S
JUDITH GAP       N/A     64  34  32 S9        30.23R
WINIFRED         N/A     64  35  33 NE9       30.18R
$$

MTZ017>020-022>027-061-062-221600-
NORTHEAST MONTANA

CITY           SKY/WX    TMP DP  RH WIND       PRES   REMARKS
JORDAN           N/A     61  34  36 E3        30.18F
SIDNEY         SUNNY     56  43  61 S3        30.22S
WOLF POINT     SUNNY     61  35  37 E5        30.21S
MALTA          SUNNY     61  37  41 NE9       30.18S
PLENTYWOOD       N/A     59  37  44 CALM      30.21R
$$

MTZ028>42-056>058-221600-
SOUTHCENTRAL AND SOUTHEAST MONTANA

CITY           SKY/WX    TMP DP  RH WIND       PRES   REMARKS
BAKER          CLOUDY    65  38  36 SE6       30.23S
BILLINGS       MOSUNNY   58  38  47 SW7       30.21R
LIVINGSTON     SUNNY     56  36  47 NW6       30.24S
MILES CITY     SUNNY     66  36  32 E6        30.19R
BIG TIMBER     SUNNY     59  36  41 W5        30.27S
HARLOWTON        N/A     58  35  41 MISG      30.23S
LAUREL           N/A     58  37  45 S6        30.18F
$$

REGIONAL REPORTS...DAKOTAS

CITY           SKY/WX    TMP DP  RH WIND       PRES   REMARKS
WILLISTON      SUNNY     59  44  57 S6        30.21S
MINOT          SUNNY     67  42  40 W14       30.17S
DICKINSON      SUNNY     66  40  38 S3        30.22S
BEACH            N/A     66  34  30 S5        30.26S
CROSBY           N/A     63  39  42 CALM      30.20S
TIOGA            N/A     61  39  44 CALM      30.22S
WATFORD CITY     N/A     63  39  42 SW7       30.21S
BISMARCK       SUNNY     62  48  60 W5        30.21R
GRAND FORKS    SUNNY     68  49  50 NW13      30.05S
FARGO          SUNNY     65  51  60 NW12      30.08R
BUFFALO SD       N/A     62  43  49 S6        30.18S
RAPID CITY     SUNNY     65  45  48 SE12      30.25S
$$

REGIONAL REPORTS...WYOMING/IDAHO/WASHINGTON

CITY           SKY/WX    TMP DP  RH WIND       PRES   REMARKS
GILLETTE       SUNNY     69  41  36 S16       30.24R
SHERIDAN       SUNNY     62  40  44 CALM      30.22R
BUFFALO WY     SUNNY     70  33  25 S3        30.27R
CODY           SUNNY     66  37  34 W5        30.29R
YELLOWSTONE LA   N/A     52  44  74 SE3       30.47R
IDAHO FALLS    SUNNY     55  44  66 N6        30.27R
SALMON         SUNNY     52  40  63 CALM      30.26R
BOISE          SUNNY     69  39  33 SE3       30.12R
SPOKANE        MOSUNNY   67  47  48 NE9       30.09R
$$

REGIONAL REPORTS...ALBERTA

CITY           SKY/WX    TMP DP  RH WIND       PRES   REMARKS
EDMONTON       MOSUNNY   61  54  77 SW5       30.09R
CALGARY        MOSUNNY   61  45  55 CALM      30.16S
LETHBRIDGE     SUNNY     61  41  48 W9G23     30.14S
MEDICINE HAT   SUNNY     64  43  45 N5        30.12S
$$

REGIONAL REPORTS...SASKATCHEWAN

CITY           SKY/WX    TMP DP  RH WIND       PRES   REMARKS
SWIFT CURRENT  SUNNY     68  32  26 SW18      30.15F
REGINA         PTSUNNY   59  37  44 CALM      30.18S
SASKATOON      PTSUNNY   57  43  58 SE10      30.12F
$$




USA.gov is the U.S. government's official web portal to all federal, state and local government web resources and services.